This demonstration page uses our WeatherBlox Daily Observations layout. Learn more.

Left ArrowRight Arrow

Hourly Observations for May 24, 2020

Temp ( °F °C ) Dew Point ( °F °C ) Humidity (%) Winds ( mph kmh ) Pressure ( in mb ) Visibility ( mi km ) Precip ( " mm )
12:52 am 00:52 Clear 67 19.4 64 17.8 91 91 SSE 8 13 29.89 1012 10 16 0.00 0.00
1:52 am 01:52 Clear 67 19.4 64 17.8 91 91 SSE 12 19 29.87 1011 10 16 0.00 0.00
2:52 am 02:52 Clear 66 18.9 64 17.8 93 93 SSE 9 15 29.86 1011 10 16 0.00 0.00
3:52 am 03:52 Clear 66 18.9 64 17.8 93 93 SSE 10 17 29.86 1011 10 16 0.00 0.00
4:52 am 04:52 Clear 66 18.9 64 17.8 93 93 SSE 10 17 29.86 1011 10 16 0.00 0.00
5:52 am 05:52 Clear 66 18.9 65 18.3 96 96 SSE 9 15 29.85 1011 10 16 0.00 0.00
6:52 am 06:52 Sunny 67 19.4 65 18.3 93 93 SSE 10 17 29.86 1011 10 16 0.00 0.00
7:52 am 07:52 Partly Cloudy 69 20.6 67 19.4 93 93 S 12 19 29.88 1012 10 16 0.00 0.00
8:52 am 08:52 Sunny 72 22.2 68 20 87 87 S 14 22 29.89 1012 10 16 0.00 0.00
9:52 am 09:52 Sunny 75 23.9 69 20.6 82 82 SSE 12 19 29.87 1011 10 16 0.00 0.00
10:52 am 10:52 Sunny 79 26.1 70 21.1 74 74 SE 12 19 29.84 1011 10 16 0.00 0.00
11:52 am 11:52 Sunny 81 27.2 69 20.6 67 67 SSE 12 19 29.87 1011 10 16 0.00 0.00
12:52 pm 12:52 Sunny 83 28.3 70 21.1 65 65 S 15 24 29.88 1012 10 16 0.00 0.00
1:52 pm 13:52 Mostly Sunny 84 28.9 70 21.1 63 63 SSW 14 22 29.86 1011 10 16 0.00 0.00
2:52 pm 14:52 Mostly Cloudy 82 27.8 68 20 63 63 SW 6 9 29.84 1011 10 16 0.00 0.00
3:52 pm 15:52 Partly Cloudy with Nearby Thunderstorms 83 28.3 66 18.9 57 57 WSW 8 13 29.81 1009 10 16 0.01 0.25
4:05 pm 16:05 Mostly Cloudy with Thunderstorms 82 27.8 68 20 63 63 S 10 17 29.78 1008 10 16 0.00 0.00
4:28 pm 16:28 Cloudy with Thunderstorms 73 22.8 63 17.2 71 71 SE 22 35 29.82 1010 10 16 0.00 0.00
4:37 pm 16:37 Mostly Cloudy with Nearby Thunderstorms 72 22.2 61 16.1 68 68 ESE 18 30 29.81 1010 10 16 0.00 0.00
4:52 pm 16:52 Cloudy with Thunderstorms 70 21.1 63 17.2 79 79 SSE 12 19 29.84 1011 10 16 0.00 0.00
5:11 pm 17:11 Cloudy with Nearby Thunderstorms 69 20.6 65 18.3 87 87 SSE 17 28 29.85 1011 10 16 0.03 0.76
5:24 pm 17:24 Cloudy with Thunderstorms 68 20 65 18.3 90 90 S 20 31 29.87 1012 5 8 0.05 1.27
5:52 pm 17:52 Cloudy with Thunderstorms 67 19.4 63 17.2 87 87 S 13 20 29.84 1010 8 13 0.13 3.30
6:24 pm 18:24 Mostly Cloudy with Light Rain 67 19.4 63 17.2 87 87 SE 13 20 29.82 1010 10 16 0.05 1.27
6:52 pm 18:52 Mostly Sunny 68 20 66 18.9 93 93 SE 10 17 29.82 1010 10 16 0.05 1.27
7:52 pm 19:52 Sunny 67 19.4 64 17.8 91 91 SE 10 17 29.85 1011 10 16 0.00 0.00
8:52 pm 20:52 Clear 66 18.9 63 17.2 90 90 SE 9 15 29.85 1011 10 16 0.00 0.00
9:52 pm 21:52 Clear 66 18.9 63 17.2 90 90 SE 9 15 29.85 1011 10 16 0.00 0.00
10:52 pm 22:52 Clear 67 19.4 63 17.2 87 87 SE 9 15 29.83 1010 10 16 0.00 0.00
11:52 pm 23:52 Clear 67 19.4 64 17.8 91 91 SE 9 15 29.81 1010 10 16 0.00 0.00

Powered by AerisWeather